#timestamp,LO_Frequency,Hit,StdDev 
1560636015.2,286047000.0,N
1560636035.1,286047002.8,N
1560636036.0,286047002.8,N
1560636055.8,286047002.8,N
1560636075.6,286047002.4,N
1560636095.5,286047002.0,N
1560636115.3,286047001.5,N
1560636135.1,286047002.8,N
1560636155.9,286047000.2,N
1560636175.7,286046999.8,N
1560636195.5,286047000.7,N
1560636215.4,286047002.6,N
1560636235.2,286047002.1,N
1560636255.0,286047002.5,N
1560636255.9,286047002.5,N
1560636275.8,286047000.4,N
1560636295.6,286047002.7,N
1560636315.4,286046998.5,N
1560636335.3,286046998.4,N
1560636355.1,286047000.4,N
1560636356.0,286047000.4,N
1560636375.8,286047001.2,N
1560636395.7,286047001.0,N
1560636415.5,286047002.2,N
1560636435.3,286047002.8,N
1560636455.2,286047001.1,N
1560636475.9,286047001.0,N
1560636495.7,286047000.7,N
1560636515.6,286047001.2,N
1560636535.4,286047001.1,N
1560636555.2,286046998.8,N
1560636575.1,286046996.5,N
1560636576.0,286046996.5,N
1560636595.8,286046997.6,N
1560636615.6,286046996.7,N
1560636635.5,286046998.6,N
1560636655.3,286046999.3,N
1560636675.1,286047000.7,N
1560636695.9,286046998.6,N
1560636715.7,286046998.6,N
1560636735.5,286047001.0,N
1560636755.4,286046999.9,N
1560636775.2,286047000.3,N
1560636795.0,286047002.3,N
1560636795.9,286047002.3,N
1560636815.8,286047004.0,N
1560636835.6,286047001.6,N
1560636855.4,286047003.1,N
1560636875.3,286047004.2,N
1560636895.1,286047005.6,N
1560636896.0,286047005.6,N
1560636915.8,286047005.5,N
1560636935.7,286047003.3,N
1560636955.5,286047003.2,N
1560636975.3,286047001.4,N
1560636995.2,286047001.4,N
1560637015.9,286047004.0,N
1560637035.7,286047003.5,N
1560637055.6,286047004.1,N
1560637075.4,286047005.5,N
1560637095.2,286047002.9,N
1560637115.1,286047004.2,N
1560637116.0,286047004.2,N
1560637135.8,286047004.0,N
1560637155.6,286047001.3,N
1560637175.5,286047001.3,N
1560637195.3,286047002.0,N
1560637215.1,286047002.5,N
1560637235.9,286047002.8,N
1560637255.7,286046998.5,N
1560637275.5,286047000.4,N
1560637295.4,286047002.8,N
1560637315.2,286046999.7,N
1560637335.0,286047001.6,N
1560637335.9,286047001.6,N
1560637355.8,286047001.3,N
1560637375.6,286047003.0,N
1560637395.4,286047006.8,Y
1560637415.3,286047003.5,P
1560637435.1,286047003.4,P
1560637436.0,286047003.4,P
1560637455.8,286047004.8,Y
1560637475.7,286047001.3,P
1560637495.5,286047001.9,N
1560637515.3,286047002.2,N
1560637535.2,286046998.2,N
1560637555.0,286046999.2,N
1560637555.9,286046999.2,N
1560637575.7,286046997.3,N
1560637595.6,286046995.2,N
1560637615.4,286046998.0,N
1560637635.2,286046998.0,N
1560637655.1,286046995.5,N
1560637656.0,286046995.5,N
1560637675.8,286046993.3,N
1560637695.6,286046992.2,N
1560637715.5,286046994.6,N
1560637735.3,286046992.1,N
1560637755.1,286046991.8,N
1560637775.9,286046992.2,N
1560637795.7,286046993.0,N
1560637815.5,286046994.8,N
1560637835.4,286046990.3,N
1560637855.2,286046991.2,N
1560637875.0,286046987.4,Y
1560637875.9,286046987.4,P
1560637895.8,286046992.1,N
1560637915.6,286046992.4,N
1560637935.4,286046992.5,N
1560637955.3,286046991.9,N
1560637975.1,286046992.1,Y
1560637995.8,286047000.1,P
1560638015.7,286047004.0,N
1560638035.5,286047003.2,N
1560638055.3,286047004.0,N
1560638075.2,286047001.6,N
1560638095.0,286047000.0,N
1560638095.9,286047000.0,N
1560638115.7,286046999.7,N
1560638135.6,286047002.3,N
1560638155.4,286047000.9,N
1560638175.2,286047000.5,N
1560638195.1,286047000.3,N
1560638196.0,286047000.3,N
1560638215.8,286047002.4,N
1560638235.6,286047002.4,N
1560638255.5,286047000.2,N
1560638275.3,286047000.0,N
1560638295.1,286047000.6,N
1560638315.9,286047002.8,N
1560638335.7,286047001.6,N
1560638355.5,286047003.9,N
1560638375.4,286047002.1,N
1560638395.2,286047001.7,N
1560638415.0,286047003.1,N
1560638415.9,286047003.1,N
1560638435.8,286047003.3,N
1560638455.6,286047003.5,N
1560638475.4,286047006.0,N
1560638495.3,286047003.4,N
1560638515.1,286047003.2,N
1560638535.8,286047004.1,N
1560638555.7,286047003.9,N
1560638575.5,286047002.3,N
1560638595.3,286047000.0,N
1560638615.2,286046999.7,N
1560638635.0,286047002.5,N
1560638635.9,286047002.5,N
1560638655.7,286047000.5,N
1560638675.6,286047002.8,N
1560638695.4,286047000.3,N
1560638715.2,286047002.5,N
1560638735.1,286046999.7,N
1560638736.0,286046999.7,N
1560638755.8,286047005.9,Y
1560638775.6,286047003.2,P
1560638795.5,286047003.0,P
1560638815.3,286047003.2,P
1560638835.1,286047003.3,Y
1560638855.9,286047002.4,P
1560638875.7,286047000.5,N
1560638895.5,286046999.2,N
1560638915.4,286046996.8,N
1560638935.2,286046995.1,N
1560638955.0,286046995.2,N
1560638955.9,286046995.2,N
1560638975.8,286046996.0,N
1560638995.6,286046993.9,N
1560639015.4,286046993.8,N
1560639035.3,286046991.7,N
1560639055.1,286046990.1,N
1560639075.8,286046992.1,N
1560639095.7,286046994.6,N
1560639115.5,286046994.1,N
1560639135.3,286046994.4,N
1560639155.2,286046992.2,N
1560639175.0,286046992.4,N
1560639175.9,286046992.4,N
1560639195.7,286046992.2,N
1560639215.6,286046992.1,N
1560639235.4,286046992.5,N
1560639255.2,286046992.2,N
1560639275.1,286046994.1,N
1560639276.0,286046994.1,N
1560639295.8,286046996.3,N
1560639315.6,286046993.9,N
1560639335.5,286046993.4,N
1560639355.3,286046993.9,N
1560639375.1,286046994.5,N
1560639395.9,286046996.1,N
1560639415.7,286046996.1,N
1560639435.5,286046993.3,Y
1560639455.4,286047000.6,P
1560639475.2,286047000.4,N
1560639495.0,286047002.6,N
1560639495.9,286047002.6,N
1560639515.8,286047002.8,N
1560639535.6,286047000.5,N
1560639555.4,286046998.1,N
1560639575.3,286047000.3,N
1560639595.1,286047000.0,N
